This is the latest recevied weather packets stored in our database for station/object W4MLN-1. If no packets are shown the sender has not sent any weather packets the latest 10 day(s).
| Time | Temp. | Humidity | Pressure | Rain* | Wind** | Luminosity | Snow |
|---|---|---|---|---|---|---|---|
| 1777225437 | 20.56° C | 57% | 1015.1 hPa | 0 mm | - | 990 W/m² | - |
| 1777225134 | 20.56° C | 56% | 1015.1 hPa | 0 mm | - | 994 W/m² | - |
| 1777224834 | 20.56° C | 55% | 1015.1 hPa | 0 mm | - | 995 W/m² | - |
| 1777224533 | 20.56° C | 58% | 1015.3 hPa | 0 mm | - | 995 W/m² | - |
| 1777224231 | 20.56° C | 59% | 1015.3 hPa | 0 mm | - | 995 W/m² | - |
| 1777223931 | 20.56° C | 59% | 1015.3 hPa | 0 mm | - | 994 W/m² | - |
| 1777223632 | 20° C | 60% | 1015.3 hPa | 0 mm | - | 993 W/m² | - |
| 1777223331 | 20° C | 60% | 1015.3 hPa | 0 mm | - | 991 W/m² | - |
| 1777223031 | 20° C | 58% | 1015.3 hPa | 0 mm | - | 997 W/m² | - |
| 1777222732 | 19.44° C | 62% | 1015.4 hPa | 0 mm | - | 992 W/m² | - |
| 1777222431 | 19.44° C | 63% | 1015.4 hPa | 0 mm | - | 986 W/m² | - |
| 1777222129 | 20° C | 60% | 1015.4 hPa | 0 mm | - | 981 W/m² | - |
| 1777221828 | 19.44° C | 61% | 1015.4 hPa | 0 mm | - | 972 W/m² | - |
| 1777221528 | 18.89° C | 62% | 1015.4 hPa | 0 mm | - | 971 W/m² | - |
| 1777221226 | 18.89° C | 63% | 1015.6 hPa | 0 mm | - | 1002 W/m² | - |
| 1777220926 | 18.89° C | 66% | 1015.6 hPa | 0 mm | - | 971 W/m² | - |
| 1777220626 | 18.89° C | 66% | 1015.7 hPa | 0 mm | - | 961 W/m² | - |
| 1777220327 | 18.89° C | 67% | 1015.7 hPa | 0 mm | - | 948 W/m² | - |
| 1777220026 | 18.89° C | 65% | 1015.7 hPa | 0 mm | - | 945 W/m² | - |
| 1777219727 | 18.89° C | 66% | 1015.6 hPa | 0 mm | - | 937 W/m² | - |
| 1777219426 | 18.89° C | 65% | 1015.7 hPa | 0 mm | - | 923 W/m² | - |
| 1777219127 | 18.33° C | 67% | 1015.7 hPa | 0 mm | - | 898 W/m² | - |
| 1777218826 | 18.33° C | 68% | 1015.7 hPa | 0 mm | - | 922 W/m² | - |
| 1777218523 | 18.33° C | 69% | 1015.7 hPa | 0 mm | - | 961 W/m² | - |
| 1777218224 | 18.33° C | 68% | 1015.7 hPa | 0 mm | - | 359 W/m² | - |
* Rain latest hour (hover to see other rain measurements)
** Current wind speed in m/s (hover to see current wind gust speed)